Time,TemperatureF,DewpointF,PressureIn,WindDirection,WindDirectionDegrees,WindSpeedMPH,WindSpeedGustMPH,Humidity,HourlyPrecipIn,Conditions,Clouds,dailyrainin,SoftwareType,DateUTC
2013-08-01 00:00:00,49.9,18.1,29.81,WSW,244,0.0,0.0,28,0.00,,---,0.00,VWS V14.01,2013-08-01 07:00:00,
2013-08-01 00:05:00,49.5,18.6,29.81,WSW,244,0.0,0.0,29,0.00,,---,0.00,VWS V14.01,2013-08-01 07:05:00,
2013-08-01 00:10:00,49.3,19.2,29.81,WSW,244,0.0,0.0,30,0.00,,---,0.00,VWS V14.01,2013-08-01 07:10:00,
2013-08-01 00:15:00,49.0,19.7,29.81,WSW,245,0.0,0.0,31,0.00,,---,0.00,VWS V14.01,2013-08-01 07:15:00,
2013-08-01 00:20:00,48.6,21.5,29.81,WSW,245,0.0,0.0,34,0.00,,---,0.00,VWS V14.01,2013-08-01 07:20:00,
2013-08-01 00:25:00,48.2,21.9,29.81,WSW,244,0.0,0.0,35,0.00,,---,0.00,VWS V14.01,2013-08-01 07:25:00,
2013-08-01 00:30:00,48.3,21.9,29.81,WSW,245,0.0,0.0,35,0.00,,---,0.00,VWS V14.01,2013-08-01 07:30:00,
2013-08-01 00:35:00,48.3,22.6,29.81,WSW,245,0.0,0.0,36,0.00,,---,0.00,VWS V14.01,2013-08-01 07:35:00,
2013-08-01 00:40:00,49.4,22.2,29.80,SSW,203,0.0,0.0,34,0.00,,---,0.00,VWS V14.01,2013-08-01 07:40:00,
2013-08-01 00:45:00,50.3,22.3,29.80,SSW,203,0.0,0.0,33,0.00,,---,0.00,VWS V14.01,2013-08-01 07:45:00,
2013-08-01 00:51:00,50.9,20.6,29.80,SSW,203,0.0,0.0,30,0.00,,---,0.00,VWS V14.01,2013-08-01 07:51:00,
2013-08-01 00:58:00,51.6,19.6,29.80,SE,143,0.0,0.0,28,0.00,,---,0.00,VWS V14.01,2013-08-01 07:58:00,
2013-08-01 01:04:00,52.0,17.3,29.80,SE,144,0.0,0.0,25,0.00,,---,0.00,VWS V14.01,2013-08-01 08:04:00,
2013-08-01 01:10:00,51.7,22.8,29.80,SE,143,0.0,0.0,32,0.00,,---,0.00,VWS V14.01,2013-08-01 08:10:00,
2013-08-01 01:16:00,51.4,20.2,29.80,SE,143,0.0,0.0,29,0.00,,---,0.00,VWS V14.01,2013-08-01 08:16:00,
2013-08-01 01:21:00,51.0,22.9,29.80,SE,143,0.0,0.0,33,0.00,,---,0.00,VWS V14.01,2013-08-01 08:21:00,
2013-08-01 01:26:00,50.5,23.2,29.80,SE,143,0.0,0.0,34,0.00,,---,0.00,VWS V14.01,2013-08-01 08:26:00,
2013-08-01 01:31:00,49.9,20.5,29.80,SE,143,0.0,0.0,31,0.00,,---,0.00,VWS V14.01,2013-08-01 08:31:00,
2013-08-01 01:37:00,49.4,18.5,29.80,SE,143,0.0,0.0,29,0.00,,---,0.00,VWS V14.01,2013-08-01 08:37:00,
2013-08-01 01:42:00,49.0,19.7,29.79,South,169,0.0,0.0,31,0.00,,---,0.00,VWS V14.01,2013-08-01 08:42:00,
2013-08-01 01:48:00,48.5,15.2,29.79,South,169,0.0,0.0,26,0.00,,---,0.00,VWS V14.01,2013-08-01 08:48:00,
2013-08-01 01:54:00,48.7,15.4,29.79,South,169,0.0,0.0,26,0.00,,---,0.00,VWS V14.01,2013-08-01 08:54:00,
2013-08-01 02:01:00,49.3,16.8,29.79,South,169,0.0,0.0,27,0.00,,---,0.00,VWS V14.01,2013-08-01 09:01:00,
2013-08-01 02:09:00,48.9,12.8,29.79,South,169,0.0,0.0,23,0.00,,---,0.00,VWS V14.01,2013-08-01 09:09:00,
2013-08-01 02:14:00,49.1,11.9,29.79,South,169,0.0,0.0,22,0.00,,---,0.00,VWS V14.01,2013-08-01 09:14:00,
2013-08-01 02:20:00,49.5,7.8,29.79,South,174,0.0,0.0,18,0.00,,---,0.00,VWS V14.01,2013-08-01 09:20:00,
2013-08-01 02:25:00,50.3,11.9,29.79,South,174,0.0,0.0,21,0.00,,---,0.00,VWS V14.01,2013-08-01 09:25:00,
2013-08-01 02:32:00,50.1,14.7,29.79,South,175,0.0,0.0,24,0.00,,---,0.00,VWS V14.01,2013-08-01 09:32:00,
2013-08-01 02:44:00,49.0,14.7,29.78,SW,229,0.0,0.0,25,0.00,,---,0.00,VWS V14.01,2013-08-01 09:44:00,
2013-08-01 02:51:00,49.0,13.8,29.78,SW,224,0.0,0.0,24,0.00,,---,0.00,VWS V14.01,2013-08-01 09:51:00,
2013-08-01 02:56:00,49.1,14.8,29.78,SW,224,0.0,0.0,25,0.00,,---,0.00,VWS V14.01,2013-08-01 09:56:00,
2013-08-01 03:02:00,49.2,19.9,29.78,SW,228,0.0,0.0,31,0.00,,---,0.00,VWS V14.01,2013-08-01 10:02:00,
2013-08-01 03:08:00,49.2,18.3,29.78,SW,228,0.0,0.0,29,0.00,,---,0.00,VWS V14.01,2013-08-01 10:08:00,
2013-08-01 03:14:00,48.7,17.9,29.78,SW,227,0.0,0.0,29,0.00,,---,0.00,VWS V14.01,2013-08-01 10:14:00,
2013-08-01 03:20:00,48.2,19.0,29.78,SSW,211,0.0,0.0,31,0.00,,---,0.00,VWS V14.01,2013-08-01 10:20:00,
2013-08-01 03:26:00,47.5,13.4,29.77,SSW,212,0.0,0.0,25,0.00,,---,0.00,VWS V14.01,2013-08-01 10:26:00,
2013-08-01 03:32:00,47.3,15.0,29.78,SSW,211,0.0,0.0,27,0.00,,---,0.00,VWS V14.01,2013-08-01 10:32:00,
2013-08-01 03:37:00,47.4,15.9,29.78,SSW,211,0.0,0.0,28,0.00,,---,0.00,VWS V14.01,2013-08-01 10:37:00,
2013-08-01 03:42:00,47.8,11.8,29.78,SSW,211,1.0,1.0,23,0.00,,---,0.00,VWS V14.01,2013-08-01 10:42:00,
2013-08-01 03:47:00,49.3,14.1,29.78,SW,226,0.0,0.0,24,0.00,,---,0.00,VWS V14.01,2013-08-01 10:47:00,
2013-08-01 03:53:00,49.2,14.9,29.77,SW,225,0.0,0.0,25,0.00,,---,0.00,VWS V14.01,2013-08-01 10:53:00,
2013-08-01 03:58:00,48.4,17.6,29.77,SW,225,0.0,0.0,29,0.00,,---,0.00,VWS V14.01,2013-08-01 10:58:00,
2013-08-01 04:04:00,47.5,15.2,29.77,SW,225,0.0,0.0,27,0.00,,---,0.00,VWS V14.01,2013-08-01 11:04:00,
2013-08-01 04:10:00,46.9,16.3,29.77,SW,225,0.0,0.0,29,0.00,,---,0.00,VWS V14.01,2013-08-01 11:10:00,
2013-08-01 04:15:00,46.5,16.8,29.77,SW,225,0.0,0.0,30,0.00,,---,0.00,VWS V14.01,2013-08-01 11:15:00,
2013-08-01 04:23:00,46.5,16.8,29.77,SW,225,0.0,0.0,30,0.00,,---,0.00,VWS V14.01,2013-08-01 11:23:00,
2013-08-01 04:28:00,46.4,16.7,29.77,SW,225,0.0,0.0,30,0.00,,---,0.00,VWS V14.01,2013-08-01 11:28:00,
2013-08-01 04:37:00,46.0,16.3,29.77,SW,223,0.0,0.0,30,0.00,,---,0.00,VWS V14.01,2013-08-01 11:37:00,
2013-08-01 04:47:00,45.7,18.3,29.78,SW,224,0.0,0.0,33,0.00,,---,0.00,VWS V14.01,2013-08-01 11:47:00,
2013-08-01 04:52:00,45.2,18.5,29.78,SW,223,0.0,0.0,34,0.00,,---,0.00,VWS V14.01,2013-08-01 11:52:00,
2013-08-01 04:57:00,44.8,18.2,29.78,SW,223,0.0,0.0,34,0.00,,---,0.00,VWS V14.01,2013-08-01 11:57:00,
2013-08-01 05:02:00,44.5,17.2,29.78,SW,223,0.0,0.0,33,0.00,,---,0.00,VWS V14.01,2013-08-01 12:02:00,
2013-08-01 05:07:00,44.4,14.9,29.78,SW,223,0.0,0.0,30,0.00,,---,0.00,VWS V14.01,2013-08-01 12:07:00,
2013-08-01 05:14:00,45.1,13.1,29.78,SW,223,0.0,0.0,27,0.00,,---,0.00,VWS V14.01,2013-08-01 12:14:00,
2013-08-01 05:19:00,45.0,12.2,29.78,SW,223,0.0,0.0,26,0.00,,---,0.00,VWS V14.01,2013-08-01 12:19:00,
2013-08-01 05:27:00,44.9,10.3,29.78,SW,224,0.0,0.0,24,0.00,,---,0.00,VWS V14.01,2013-08-01 12:27:00,
2013-08-01 05:34:00,44.7,9.2,29.78,SSW,211,0.0,0.0,23,0.00,,---,0.00,VWS V14.01,2013-08-01 12:34:00,
2013-08-01 05:39:00,45.1,11.4,29.78,SSW,211,0.0,0.0,25,0.00,,---,0.00,VWS V14.01,2013-08-01 12:39:00,
2013-08-01 05:44:00,44.9,12.1,29.79,SSW,211,0.0,0.0,26,0.00,,---,0.00,VWS V14.01,2013-08-01 12:44:00,
2013-08-01 05:52:00,44.9,13.8,29.79,SSW,212,0.0,0.0,28,0.00,,---,0.00,VWS V14.01,2013-08-01 12:52:00,
2013-08-01 05:57:00,45.5,20.1,29.79,SSW,211,0.0,0.0,36,0.00,,---,0.00,VWS V14.01,2013-08-01 12:57:00,
2013-08-01 06:04:00,45.9,15.4,29.79,SSW,211,0.0,0.0,29,0.00,,---,0.00,VWS V14.01,2013-08-01 13:04:00,
2013-08-01 06:09:00,45.6,16.7,29.79,SSW,211,0.0,0.0,31,0.00,,---,0.00,VWS V14.01,2013-08-01 13:09:00,
2013-08-01 06:15:00,45.5,19.5,29.79,SSW,211,0.0,0.0,35,0.00,,---,0.00,VWS V14.01,2013-08-01 13:15:00,
2013-08-01 06:21:00,45.5,23.2,29.79,SSW,210,0.0,0.0,41,0.00,,---,0.00,VWS V14.01,2013-08-01 13:21:00,
2013-08-01 06:27:00,45.3,17.2,29.79,SSW,211,0.0,0.0,32,0.00,,---,0.00,VWS V14.01,2013-08-01 13:27:00,
2013-08-01 06:32:00,45.4,25.9,29.79,SSW,211,0.0,0.0,46,0.00,,---,0.00,VWS V14.01,2013-08-01 13:32:00,
2013-08-01 06:37:00,45.7,24.5,29.79,SSW,211,0.0,0.0,43,0.00,,---,0.00,VWS V14.01,2013-08-01 13:37:00,
2013-08-01 06:42:00,45.8,19.7,29.79,SSW,211,0.0,0.0,35,0.00,,---,0.00,VWS V14.01,2013-08-01 13:42:00,
2013-08-01 06:48:00,46.1,20.0,29.79,SSW,211,0.0,0.0,35,0.00,,---,0.00,VWS V14.01,2013-08-01 13:48:00,
2013-08-01 06:53:00,46.5,22.3,29.79,SSW,211,0.0,0.0,38,0.00,,---,0.00,VWS V14.01,2013-08-01 13:53:00,
2013-08-01 06:59:00,47.1,23.4,29.79,SSW,211,0.0,0.0,39,0.00,,---,0.00,VWS V14.01,2013-08-01 13:59:00,
2013-08-01 07:04:00,47.8,24.7,29.79,SSW,211,0.0,0.0,40,0.00,,---,0.00,VWS V14.01,2013-08-01 14:04:00,
2013-08-01 07:11:00,48.4,24.0,29.79,SSW,211,0.0,0.0,38,0.00,,---,0.00,VWS V14.01,2013-08-01 14:11:00,
2013-08-01 07:17:00,48.5,24.1,29.79,SSW,211,0.0,0.0,38,0.00,,---,0.00,VWS V14.01,2013-08-01 14:17:00,
2013-08-01 07:24:00,49.1,24.6,29.79,SSW,211,0.0,0.0,38,0.00,,---,0.00,VWS V14.01,2013-08-01 14:24:00,
2013-08-01 07:30:00,49.9,24.7,29.79,SSW,211,0.0,0.0,37,0.00,,---,0.00,VWS V14.01,2013-08-01 14:30:00,
2013-08-01 07:35:00,50.7,25.4,29.79,SSW,211,0.0,0.0,37,0.00,,---,0.00,VWS V14.01,2013-08-01 14:35:00,
2013-08-01 07:41:00,51.9,26.5,29.79,SSW,211,0.0,0.0,37,0.00,,---,0.00,VWS V14.01,2013-08-01 14:41:00,
2013-08-01 07:47:00,53.9,26.9,29.80,SSW,211,0.0,0.0,35,0.00,,---,0.00,VWS V14.01,2013-08-01 14:47:00,
2013-08-01 07:53:00,55.6,24.7,29.80,SW,232,0.0,1.0,30,0.00,,---,0.00,VWS V14.01,2013-08-01 14:53:00,
2013-08-01 07:58:00,57.1,23.5,29.79,NW,326,1.0,1.0,27,0.00,,---,0.00,VWS V14.01,2013-08-01 14:58:00,
2013-08-01 08:06:00,59.6,25.6,29.80,NW,304,0.0,1.0,27,0.00,,---,0.00,VWS V14.01,2013-08-01 15:06:00,
2013-08-01 08:13:00,62.6,26.3,29.80,South,187,0.0,0.0,25,0.00,,---,0.00,VWS V14.01,2013-08-01 15:13:00,
2013-08-01 08:18:00,64.8,25.1,29.79,SSW,201,0.0,0.0,22,0.00,,---,0.00,VWS V14.01,2013-08-01 15:18:00,
2013-08-01 08:24:00,66.2,25.1,29.79,SSW,202,0.0,0.0,21,0.00,,---,0.00,VWS V14.01,2013-08-01 15:24:00,
2013-08-01 08:29:00,67.4,25.0,29.79,SSW,194,0.0,0.0,20,0.00,,---,0.00,VWS V14.01,2013-08-01 15:29:00,
2013-08-01 08:36:00,69.5,24.2,29.79,WSW,257,0.0,0.0,18,0.00,,---,0.00,VWS V14.01,2013-08-01 15:36:00,
2013-08-01 08:42:00,70.2,23.4,29.79,NNW,327,0.0,0.0,17,0.00,,---,0.00,VWS V14.01,2013-08-01 15:42:00,
2013-08-01 08:47:00,70.4,23.5,29.79,WNW,288,0.0,0.0,17,0.00,,---,0.00,VWS V14.01,2013-08-01 15:47:00,
2013-08-01 08:58:00,71.3,25.6,29.79,NW,315,0.0,0.0,18,0.00,,---,0.00,VWS V14.01,2013-08-01 15:58:00,
2013-08-01 09:04:00,72.2,23.5,29.79,NW,314,0.0,0.0,16,0.00,,---,0.00,VWS V14.01,2013-08-01 16:04:00,
2013-08-01 09:09:00,73.1,21.1,29.78,WNW,288,0.0,1.0,14,0.00,,---,0.00,VWS V14.01,2013-08-01 16:09:00,
2013-08-01 09:14:00,73.9,16.1,29.78,WNW,297,0.0,0.0,11,0.00,,---,0.00,VWS V14.01,2013-08-01 16:14:00,
2013-08-01 09:19:00,74.0,9.0,29.78,WSW,252,2.0,2.0,8,0.00,,---,0.00,VWS V14.01,2013-08-01 16:19:00,
2013-08-01 09:25:00,74.4,9.3,29.78,NW,321,2.0,5.0,8,0.00,,---,0.00,VWS V14.01,2013-08-01 16:25:00,
2013-08-01 09:30:00,75.0,9.8,29.78,WNW,283,1.0,1.0,8,0.00,,---,0.00,VWS V14.01,2013-08-01 16:30:00,
2013-08-01 09:37:00,75.5,7.2,29.78,NNW,333,2.0,3.0,7,0.00,,---,0.00,VWS V14.01,2013-08-01 16:37:00,
2013-08-01 09:43:00,75.5,7.2,29.78,NNW,328,1.0,1.0,7,0.00,,---,0.00,VWS V14.01,2013-08-01 16:43:00,
2013-08-01 09:48:00,76.2,4.3,29.77,West,259,0.0,1.0,6,0.00,,---,0.00,VWS V14.01,2013-08-01 16:48:00,
2013-08-01 09:53:00,77.0,8.3,29.77,North,359,0.0,1.0,7,0.00,,---,0.00,VWS V14.01,2013-08-01 16:53:00,
2013-08-01 09:58:00,77.7,5.4,29.78,ENE,65,3.0,3.0,6,0.00,,---,0.00,VWS V14.01,2013-08-01 16:58:00,
2013-08-01 10:05:00,78.4,1.9,29.78,ESE,115,0.0,1.0,5,0.00,,---,0.00,VWS V14.01,2013-08-01 17:05:00,
2013-08-01 10:11:00,78.9,6.2,29.78,East,100,0.0,0.0,6,0.00,,---,0.00,VWS V14.01,2013-08-01 17:11:00,
2013-08-01 10:17:00,79.4,2.6,29.77,ESE,108,1.0,1.0,5,0.00,,---,0.00,VWS V14.01,2013-08-01 17:17:00,
2013-08-01 10:26:00,79.7,6.8,29.78,West,263,1.0,1.0,4,0.00,,---,0.00,VWS V14.01,2013-08-01 17:26:00,
2013-08-01 10:31:00,79.6,2.8,29.78,WNW,294,2.0,3.0,5,0.00,,---,0.00,VWS V14.01,2013-08-01 17:31:00,
2013-08-01 10:38:00,79.5,6.7,29.78,East,98,1.0,2.0,6,0.00,,---,0.00,VWS V14.01,2013-08-01 17:38:00,
2013-08-01 10:43:00,79.8,2.8,29.78,West,269,0.0,0.0,4,0.00,,---,0.00,VWS V14.01,2013-08-01 17:43:00,
2013-08-01 10:49:00,80.4,3.3,29.78,ESE,103,1.0,1.0,4,0.00,,---,0.00,VWS V14.01,2013-08-01 17:49:00,
2013-08-01 10:56:00,80.7,3.6,29.78,ESE,106,0.0,1.0,4,0.00,,---,0.00,VWS V14.01,2013-08-01 17:56:00,
2013-08-01 11:02:00,81.2,3.8,29.78,SSE,150,1.0,1.0,4,0.00,,---,0.00,VWS V14.01,2013-08-01 18:02:00,
2013-08-01 11:11:00,81.0,7.8,29.78,SE,145,1.0,1.0,6,0.00,,---,0.00,VWS V14.01,2013-08-01 18:11:00,
2013-08-01 11:17:00,81.7,4.3,29.77,ESE,120,0.0,1.0,5,0.00,,---,0.00,VWS V14.01,2013-08-01 18:17:00,
2013-08-01 11:23:00,82.6,4.9,29.77,WNW,287,0.0,1.0,3,0.00,,---,0.00,VWS V14.01,2013-08-01 18:23:00,
2013-08-01 11:29:00,82.5,4.8,29.77,NE,56,1.0,1.0,5,0.00,,---,0.00,VWS V14.01,2013-08-01 18:29:00,
2013-08-01 11:34:00,83.1,0.4,29.77,NW,325,0.0,0.0,4,0.00,,---,0.00,VWS V14.01,2013-08-01 18:34:00,
2013-08-01 11:39:00,82.9,5.1,29.77,ENE,68,1.0,2.0,5,0.00,,---,0.00,VWS V14.01,2013-08-01 18:39:00,
2013-08-01 11:47:00,82.5,0.0,29.77,WNW,284,2.0,3.0,3,0.00,,---,0.00,VWS V14.01,2013-08-01 18:47:00,
2013-08-01 11:52:00,82.3,4.7,29.77,NW,325,2.0,2.0,5,0.00,,---,0.00,VWS V14.01,2013-08-01 18:52:00,
2013-08-01 11:58:00,82.8,5.0,29.77,WSW,257,1.0,2.0,5,0.00,,---,0.00,VWS V14.01,2013-08-01 18:58:00,
2013-08-01 12:03:00,83.2,5.3,29.77,North,354,1.0,2.0,5,0.00,,---,0.00,VWS V14.01,2013-08-01 19:03:00,
2013-08-01 12:09:00,83.4,5.5,29.77,SSW,194,1.0,1.0,5,0.00,,---,0.00,VWS V14.01,2013-08-01 19:09:00,
2013-08-01 12:14:00,83.3,9.4,29.77,NE,44,0.0,1.0,6,0.00,,---,0.00,VWS V14.01,2013-08-01 19:14:00,
2013-08-01 12:24:00,82.7,9.0,29.76,NNW,343,0.0,1.0,6,0.00,,---,0.00,VWS V14.01,2013-08-01 19:24:00,
2013-08-01 12:29:00,82.5,4.8,29.76,ENE,72,1.0,1.0,5,0.00,,---,0.00,VWS V14.01,2013-08-01 19:29:00,
2013-08-01 12:35:00,82.7,9.0,29.75,SSW,198,0.0,0.0,6,0.00,,---,0.00,VWS V14.01,2013-08-01 19:35:00,
2013-08-01 12:40:00,82.7,12.4,29.75,ENE,72,1.0,1.0,7,0.00,,---,0.00,VWS V14.01,2013-08-01 19:40:00,
2013-08-01 12:46:00,83.1,9.3,29.75,NNW,340,3.0,4.0,6,0.00,,---,0.00,VWS V14.01,2013-08-01 19:46:00,
2013-08-01 12:52:00,82.9,12.6,29.75,NNW,328,0.0,1.0,7,0.00,,---,0.00,VWS V14.01,2013-08-01 19:52:00,
2013-08-01 12:57:00,83.0,9.2,29.75,ENE,68,0.0,1.0,6,0.00,,---,0.00,VWS V14.01,2013-08-01 19:57:00,
2013-08-01 13:03:00,83.3,5.4,29.75,East,99,0.0,1.0,5,0.00,,---,0.00,VWS V14.01,2013-08-01 20:03:00,
2013-08-01 13:08:00,83.8,5.7,29.75,ESE,105,0.0,1.0,5,0.00,,---,0.00,VWS V14.01,2013-08-01 20:08:00,
2013-08-01 13:14:00,83.8,5.7,29.75,SSE,160,1.0,2.0,5,0.00,,---,0.00,VWS V14.01,2013-08-01 20:14:00,
2013-08-01 13:19:00,82.6,8.9,29.75,WSW,257,1.0,1.0,6,0.00,,---,0.00,VWS V14.01,2013-08-01 20:19:00,
2013-08-01 13:26:00,81.1,17.0,29.75,NW,321,1.0,1.0,9,0.00,,---,0.00,VWS V14.01,2013-08-01 20:26:00,
2013-08-01 13:32:00,80.7,14.0,29.75,SSE,159,0.0,0.0,8,0.00,,---,0.00,VWS V14.01,2013-08-01 20:32:00,
2013-08-01 13:40:00,80.2,13.6,29.75,SSE,149,2.0,2.0,8,0.00,,---,0.00,VWS V14.01,2013-08-01 20:40:00,
2013-08-01 13:43:00,80.4,16.5,29.75,SSE,156,1.0,2.0,9,0.00,,---,0.00,VWS V14.01,2013-08-01 20:43:00,
2013-08-01 13:50:00,80.4,13.8,29.75,ESE,105,0.0,1.0,8,0.00,,---,0.00,VWS V14.01,2013-08-01 20:50:00,
2013-08-01 13:56:00,79.9,13.4,29.74,ENE,69,0.0,0.0,8,0.00,,---,0.00,VWS V14.01,2013-08-01 20:56:00,
2013-08-01 14:02:00,79.4,13.0,29.74,NE,45,6.0,6.0,8,0.00,,---,0.00,VWS V14.01,2013-08-01 21:02:00,
2013-08-01 14:07:00,79.2,12.9,29.74,NE,39,2.0,2.0,8,0.00,,---,0.00,VWS V14.01,2013-08-01 21:07:00,
2013-08-01 14:12:00,79.6,13.2,29.74,NNW,330,4.0,4.0,8,0.00,,---,0.00,VWS V14.01,2013-08-01 21:12:00,
2013-08-01 14:18:00,79.1,15.5,29.74,NNE,18,2.0,3.0,9,0.00,,---,0.00,VWS V14.01,2013-08-01 21:18:00,
2013-08-01 14:23:00,79.2,12.9,29.74,ESE,103,3.0,3.0,8,0.00,,---,0.00,VWS V14.01,2013-08-01 21:23:00,
2013-08-01 14:30:00,80.1,16.2,29.74,NNW,345,4.0,4.0,9,0.00,,---,0.00,VWS V14.01,2013-08-01 21:30:00,
2013-08-01 14:37:00,80.0,16.2,29.74,North,8,3.0,3.0,9,0.00,,---,0.00,VWS V14.01,2013-08-01 21:37:00,
2013-08-01 14:42:00,80.0,16.2,29.74,NW,309,1.0,2.0,9,0.00,,---,0.00,VWS V14.01,2013-08-01 21:42:00,
2013-08-01 14:47:00,79.8,16.0,29.74,North,1,2.0,2.0,9,0.00,,---,0.00,VWS V14.01,2013-08-01 21:47:00,
2013-08-01 14:52:00,79.8,18.4,29.73,NNW,330,3.0,3.0,10,0.00,,---,0.00,VWS V14.01,2013-08-01 21:52:00,
2013-08-01 14:57:00,79.6,18.3,29.73,NNE,32,2.0,2.0,10,0.00,,---,0.00,VWS V14.01,2013-08-01 21:57:00,
2013-08-01 15:02:00,80.3,18.8,29.73,North,9,4.0,5.0,10,0.00,,---,0.00,VWS V14.01,2013-08-01 22:02:00,
2013-08-01 15:07:00,80.6,19.0,29.73,NW,319,2.0,2.0,10,0.00,,---,0.00,VWS V14.01,2013-08-01 22:07:00,
2013-08-01 15:15:00,79.6,15.9,29.73,NE,47,1.0,1.0,9,0.00,,---,0.00,VWS V14.01,2013-08-01 22:15:00,
2013-08-01 15:20:00,79.7,20.6,29.73,NNW,332,1.0,1.0,11,0.00,,---,0.00,VWS V14.01,2013-08-01 22:20:00,
2013-08-01 15:25:00,79.1,17.9,29.73,WNW,297,2.0,3.0,10,0.00,,---,0.00,VWS V14.01,2013-08-01 22:25:00,
2013-08-01 15:30:00,79.1,15.5,29.73,WSW,245,0.0,0.0,9,0.00,,---,0.00,VWS V14.01,2013-08-01 22:30:00,
2013-08-01 15:35:00,79.5,15.8,29.72,SE,129,1.0,1.0,9,0.00,,---,0.00,VWS V14.01,2013-08-01 22:35:00,
2013-08-01 15:42:00,79.9,16.1,29.72,NW,304,3.0,3.0,9,0.00,,---,0.00,VWS V14.01,2013-08-01 22:42:00,
2013-08-01 15:48:00,78.5,17.5,29.72,NW,318,3.0,3.0,10,0.00,,---,0.00,VWS V14.01,2013-08-01 22:48:00,
2013-08-01 15:53:00,78.0,17.1,29.72,NW,305,1.0,1.0,10,0.00,,---,0.00,VWS V14.01,2013-08-01 22:53:00,
2013-08-01 15:58:00,78.3,17.3,29.72,WNW,283,6.0,6.0,10,0.00,,---,0.00,VWS V14.01,2013-08-01 22:58:00,
2013-08-01 16:03:00,78.5,15.0,29.72,NNW,334,1.0,2.0,9,0.00,,---,0.00,VWS V14.01,2013-08-01 23:03:00,
2013-08-01 16:09:00,78.0,17.1,29.72,NW,321,3.0,3.0,10,0.00,,---,0.00,VWS V14.01,2013-08-01 23:09:00,
2013-08-01 16:14:00,78.2,17.2,29.72,WNW,282,1.0,1.0,10,0.00,,---,0.00,VWS V14.01,2013-08-01 23:14:00,
2013-08-01 16:20:00,78.9,17.8,29.71,NNW,342,0.0,0.0,10,0.00,,---,0.00,VWS V14.01,2013-08-01 23:20:00,
2013-08-01 16:25:00,78.8,15.2,29.71,ENE,58,1.0,2.0,9,0.00,,---,0.00,VWS V14.01,2013-08-01 23:25:00,
2013-08-01 16:30:00,78.8,19.9,29.71,NW,325,0.0,1.0,11,0.00,,---,0.00,VWS V14.01,2013-08-01 23:30:00,
2013-08-01 16:35:00,79.4,20.4,29.71,North,357,0.0,0.0,11,0.00,,---,0.00,VWS V14.01,2013-08-01 23:35:00,
2013-08-01 16:42:00,79.0,24.0,29.71,NW,321,3.0,3.0,13,0.00,,---,0.00,VWS V14.01,2013-08-01 23:42:00,
2013-08-01 16:47:00,78.1,21.4,29.70,WSW,248,1.0,2.0,12,0.00,,---,0.00,VWS V14.01,2013-08-01 23:47:00,
2013-08-01 16:52:00,78.2,21.5,29.70,North,3,2.0,2.0,12,0.00,,---,0.00,VWS V14.01,2013-08-01 23:52:00,
2013-08-01 16:57:00,78.1,17.1,29.70,NW,313,1.0,1.0,10,0.00,,---,0.00,VWS V14.01,2013-08-01 23:57:00,
2013-08-01 17:02:00,78.5,17.5,29.70,NW,320,0.0,0.0,10,0.00,,---,0.00,VWS V14.01,2013-08-02 00:02:00,
2013-08-01 17:08:00,78.7,17.6,29.70,NNW,330,1.0,2.0,10,0.00,,---,0.00,VWS V14.01,2013-08-02 00:08:00,
2013-08-01 17:15:00,78.7,15.2,29.70,NW,306,2.0,3.0,9,0.00,,---,0.00,VWS V14.01,2013-08-02 00:15:00,
2013-08-01 17:20:00,78.7,17.6,29.70,ENE,65,0.0,0.0,10,0.00,,---,0.00,VWS V14.01,2013-08-02 00:20:00,
2013-08-01 17:25:00,79.0,20.0,29.70,North,360,1.0,1.0,11,0.00,,---,0.00,VWS V14.01,2013-08-02 00:25:00,
2013-08-01 17:32:00,78.7,12.5,29.69,WNW,293,2.0,2.0,8,0.00,,---,0.00,VWS V14.01,2013-08-02 00:32:00,
2013-08-01 17:37:00,78.9,12.6,29.69,North,352,0.0,0.0,8,0.00,,---,0.00,VWS V14.01,2013-08-02 00:37:00,
2013-08-01 17:42:00,79.1,6.4,29.69,North,350,0.0,0.0,6,0.00,,---,0.00,VWS V14.01,2013-08-02 00:42:00,
2013-08-01 17:47:00,78.7,9.5,29.69,NE,45,0.0,0.0,7,0.00,,---,0.00,VWS V14.01,2013-08-02 00:47:00,
2013-08-01 17:53:00,78.6,2.1,29.69,North,4,2.0,2.0,5,0.00,,---,0.00,VWS V14.01,2013-08-02 00:53:00,
2013-08-01 17:58:00,78.8,2.2,29.69,WNW,293,0.0,0.0,5,0.00,,---,0.00,VWS V14.01,2013-08-02 00:58:00,
2013-08-01 18:03:00,78.9,6.2,29.69,WSW,240,2.0,2.0,6,0.00,,---,0.00,VWS V14.01,2013-08-02 01:03:00,
2013-08-01 18:09:00,78.3,17.3,29.69,North,355,2.0,2.0,10,0.00,,---,0.00,VWS V14.01,2013-08-02 01:09:00,
2013-08-01 18:15:00,77.7,16.8,29.69,West,270,0.0,0.0,10,0.00,,---,0.00,VWS V14.01,2013-08-02 01:15:00,
2013-08-01 18:20:00,77.1,18.6,29.69,East,89,0.0,0.0,11,0.00,,---,0.00,VWS V14.01,2013-08-02 01:20:00,
2013-08-01 18:25:00,76.4,18.0,29.69,SE,133,0.0,0.0,11,0.00,,---,0.00,VWS V14.01,2013-08-02 01:25:00,
2013-08-01 18:31:00,75.8,17.6,29.69,NE,47,0.0,0.0,11,0.00,,---,0.00,VWS V14.01,2013-08-02 01:31:00,
2013-08-01 18:37:00,75.2,12.5,29.69,SE,131,0.0,0.0,9,0.00,,---,0.00,VWS V14.01,2013-08-02 01:37:00,
2013-08-01 18:42:00,74.7,12.2,29.69,NNW,333,0.0,0.0,9,0.00,,---,0.00,VWS V14.01,2013-08-02 01:42:00,
2013-08-01 18:49:00,73.8,11.5,29.70,North,350,2.0,4.0,9,0.00,,---,0.00,VWS V14.01,2013-08-02 01:49:00,
2013-08-01 18:54:00,73.0,10.9,29.70,WNW,295,0.0,0.0,9,0.00,,---,0.00,VWS V14.01,2013-08-02 01:54:00,
2013-08-01 19:00:00,72.5,12.9,29.70,WNW,300,0.0,0.0,10,0.00,,---,0.00,VWS V14.01,2013-08-02 02:00:00,
2013-08-01 19:07:00,71.9,14.6,29.70,NW,309,0.0,0.0,11,0.00,,---,0.00,VWS V14.01,2013-08-02 02:07:00,
2013-08-01 19:12:00,71.7,18.3,29.70,West,269,0.0,0.0,13,0.00,,---,0.00,VWS V14.01,2013-08-02 02:12:00,
2013-08-01 19:18:00,71.4,18.0,29.70,West,269,0.0,0.0,13,0.00,,---,0.00,VWS V14.01,2013-08-02 02:18:00,
2013-08-01 19:23:00,70.9,21.0,29.70,West,270,0.0,0.0,15,0.00,,---,0.00,VWS V14.01,2013-08-02 02:23:00,
2013-08-01 19:28:00,70.2,23.4,29.71,West,269,0.0,0.0,17,0.00,,---,0.00,VWS V14.01,2013-08-02 02:28:00,
2013-08-01 19:33:00,69.3,24.0,29.71,West,270,0.0,0.0,18,0.00,,---,0.00,VWS V14.01,2013-08-02 02:33:00,
2013-08-01 19:39:00,68.3,25.7,29.71,West,270,0.0,0.0,20,0.00,,---,0.00,VWS V14.01,2013-08-02 02:39:00,
2013-08-01 19:44:00,67.1,25.9,29.71,West,269,0.0,0.0,21,0.00,,---,0.00,VWS V14.01,2013-08-02 02:44:00,
2013-08-01 19:52:00,65.7,26.9,29.71,West,270,0.0,0.0,23,0.00,,---,0.00,VWS V14.01,2013-08-02 02:52:00,
2013-08-01 19:57:00,64.7,27.1,29.71,West,269,0.0,0.0,24,0.00,,---,0.00,VWS V14.01,2013-08-02 02:57:00,
2013-08-01 20:02:00,63.8,28.3,29.71,West,270,0.0,0.0,26,0.00,,---,0.00,VWS V14.01,2013-08-02 03:02:00,
2013-08-01 20:08:00,62.7,29.1,29.70,West,270,0.0,0.0,28,0.00,,---,0.00,VWS V14.01,2013-08-02 03:08:00,
2013-08-01 20:13:00,62.0,28.5,29.70,West,270,0.0,0.0,28,0.00,,---,0.00,VWS V14.01,2013-08-02 03:13:00,
2013-08-01 20:20:00,61.0,28.5,29.71,West,269,0.0,0.0,29,0.00,,---,0.00,VWS V14.01,2013-08-02 03:20:00,
2013-08-01 20:25:00,60.3,27.9,29.71,West,269,0.0,0.0,29,0.00,,---,0.00,VWS V14.01,2013-08-02 03:25:00,
2013-08-01 20:37:00,58.9,26.7,29.72,West,269,0.0,0.0,29,0.00,,---,0.00,VWS V14.01,2013-08-02 03:37:00,
2013-08-01 20:42:00,58.3,27.0,29.72,West,269,0.0,0.0,30,0.00,,---,0.00,VWS V14.01,2013-08-02 03:42:00,
2013-08-01 20:47:00,57.6,27.2,29.72,West,268,0.0,0.0,31,0.00,,---,0.00,VWS V14.01,2013-08-02 03:47:00,
2013-08-01 20:54:00,56.9,27.4,29.72,West,268,0.0,0.0,32,0.00,,---,0.00,VWS V14.01,2013-08-02 03:54:00,
2013-08-01 20:59:00,56.5,28.5,29.72,West,269,0.0,0.0,34,0.00,,---,0.00,VWS V14.01,2013-08-02 03:59:00,
2013-08-01 21:01:00,56.2,27.5,29.72,West,269,0.0,0.0,33,0.00,,---,0.00,VWS V14.01,2013-08-02 04:01:00,
2013-08-01 21:02:00,56.2,27.5,29.72,West,268,0.0,0.0,33,0.00,,---,0.00,VWS V14.01,2013-08-02 04:02:00,
2013-08-01 21:04:00,56.0,27.3,29.72,West,269,0.0,0.0,33,0.00,,---,0.00,VWS V14.01,2013-08-02 04:04:00,
2013-08-01 21:07:00,55.8,27.1,29.73,West,269,0.0,0.0,33,0.00,,---,0.00,VWS V14.01,2013-08-02 04:07:00,
2013-08-01 21:12:00,55.4,26.0,29.73,West,269,0.0,0.0,32,0.00,,---,0.00,VWS V14.01,2013-08-02 04:12:00,
2013-08-01 21:15:00,55.1,25.8,29.73,West,268,0.0,0.0,32,0.00,,---,0.00,VWS V14.01,2013-08-02 04:15:00,
2013-08-01 21:18:00,54.8,24.8,29.73,West,268,0.0,0.0,31,0.00,,---,0.00,VWS V14.01,2013-08-02 04:18:00,
2013-08-01 21:23:00,54.3,25.1,29.73,West,269,0.0,0.0,32,0.00,,---,0.00,VWS V14.01,2013-08-02 04:23:00,
2013-08-01 21:41:00,52.9,23.1,29.73,West,269,0.0,0.0,31,0.00,,---,0.00,VWS V14.01,2013-08-02 04:41:00,
2013-08-01 21:46:00,52.5,22.8,29.73,West,269,0.0,0.0,31,0.00,,---,0.00,VWS V14.01,2013-08-02 04:46:00,
2013-08-01 21:52:00,52.3,23.3,29.73,West,269,0.0,0.0,32,0.00,,---,0.00,VWS V14.01,2013-08-02 04:52:00,
2013-08-01 21:57:00,52.1,23.9,29.74,West,269,0.0,0.0,33,0.00,,---,0.00,VWS V14.01,2013-08-02 04:57:00,
2013-08-01 22:02:00,51.9,24.4,29.74,West,269,0.0,0.0,34,0.00,,---,0.00,VWS V14.01,2013-08-02 05:02:00,
2013-08-01 22:07:00,51.7,24.3,29.75,West,269,0.0,0.0,34,0.00,,---,0.00,VWS V14.01,2013-08-02 05:07:00,
2013-08-01 22:12:00,51.4,24.7,29.75,West,269,0.0,0.0,35,0.00,,---,0.00,VWS V14.01,2013-08-02 05:12:00,
2013-08-01 22:17:00,51.0,23.6,29.75,West,269,0.0,0.0,34,0.00,,---,0.00,VWS V14.01,2013-08-02 05:17:00,
2013-08-01 22:22:00,50.7,24.1,29.75,West,269,0.0,0.0,35,0.00,,---,0.00,VWS V14.01,2013-08-02 05:22:00,
2013-08-01 22:27:00,50.5,24.6,29.75,West,269,0.0,0.0,36,0.00,,---,0.00,VWS V14.01,2013-08-02 05:27:00,
2013-08-01 22:32:00,50.3,25.7,29.76,West,267,0.0,0.0,38,0.00,,---,0.00,VWS V14.01,2013-08-02 05:32:00,
2013-08-01 22:37:00,50.4,26.4,29.76,West,267,0.0,0.0,39,0.00,,---,0.00,VWS V14.01,2013-08-02 05:37:00,
2013-08-01 22:42:00,50.6,26.6,29.77,West,267,0.0,0.0,39,0.00,,---,0.00,VWS V14.01,2013-08-02 05:42:00,
2013-08-01 22:47:00,50.6,26.6,29.77,West,267,0.0,0.0,39,0.00,,---,0.00,VWS V14.01,2013-08-02 05:47:00,
2013-08-01 22:52:00,50.6,27.2,29.77,West,267,0.0,0.0,40,0.00,,---,0.00,VWS V14.01,2013-08-02 05:52:00,
2013-08-01 22:58:00,50.6,27.8,29.77,West,266,0.0,0.0,41,0.00,,---,0.00,VWS V14.01,2013-08-02 05:58:00,
2013-08-01 23:03:00,50.8,28.0,29.77,West,267,0.0,0.0,41,0.00,,---,0.00,VWS V14.01,2013-08-02 06:03:00,
2013-08-01 23:08:00,51.0,28.1,29.76,West,267,0.0,0.0,41,0.00,,---,0.00,VWS V14.01,2013-08-02 06:08:00,
2013-08-01 23:13:00,51.0,28.7,29.76,West,267,0.0,0.0,42,0.00,,---,0.00,VWS V14.01,2013-08-02 06:13:00,
2013-08-01 23:18:00,51.0,28.7,29.76,West,267,0.0,0.0,42,0.00,,---,0.00,VWS V14.01,2013-08-02 06:18:00,
2013-08-01 23:23:00,50.7,28.5,29.76,West,267,0.0,0.0,42,0.00,,---,0.00,VWS V14.01,2013-08-02 06:23:00,
2013-08-01 23:28:00,50.4,27.6,29.76,West,267,0.0,0.0,41,0.00,,---,0.00,VWS V14.01,2013-08-02 06:28:00,
2013-08-01 23:33:00,50.5,27.7,29.76,West,267,0.0,0.0,41,0.00,,---,0.00,VWS V14.01,2013-08-02 06:33:00,
2013-08-01 23:38:00,50.6,27.2,29.76,West,267,0.0,0.0,40,0.00,,---,0.00,VWS V14.01,2013-08-02 06:38:00,
2013-08-01 23:43:00,50.5,27.7,29.75,West,267,0.0,0.0,41,0.00,,---,0.00,VWS V14.01,2013-08-02 06:43:00,
2013-08-01 23:48:00,50.6,28.4,29.75,West,267,0.0,0.0,42,0.00,,---,0.00,VWS V14.01,2013-08-02 06:48:00,
2013-08-01 23:53:00,50.7,27.9,29.75,West,267,0.0,0.0,41,0.00,,---,0.00,VWS V14.01,2013-08-02 06:53:00,
2013-08-01 23:58:00,50.7,27.3,29.75,West,267,0.0,0.0,40,0.00,,---,0.00,VWS V14.01,2013-08-02 06:58:00,